Location: American Medical Response
(33.3472°N, 96.5511°W)
Time: 16:25:47
(UTC+00:00)

SL-4 R/B - Pass Details

Date: 07 July 2022
Orbit: 425 x 653 km, 51.6° (Epoch: 17 August)

Event Time Altitude Azimuth Distance (km) Brightness Sun altitude
Exits shadow 06:09:10 10° 357° (N) 1,582 5.2 -33.8°
Drops below altitude 10° 06:09:10 10° 357° (N) 1,583 5.2 -33.8°
Sets 06:12:35 0° 31° (NNE) 2,509 6.1 -33.9°
